E1763 Weather Reports


time (UTC)temp
C
wind
direction
speed
KPH
gust
KPH
rain 1hr
cm
rain 24hr
cm
rain mn
cm
humidity
%
barometer
mb
20260509151601 9 213 0.0 0.0 0.00 0.00 0.00 96 1011.9
20260509150103 8 159 0.0 0.0 0.00 0.00 0.00 96 1011.9
20260509144600 8 220 0.0 0.0 0.00 0.00 0.00 97 1011.9
20260509143100 8 184 0.0 0.0 0.00 0.00 0.00 96 1011.9
20260509141558 8 86 0.0 0.0 0.00 0.00 0.00 96 1011.8
20260509134555 8 47 0.0 0.0 0.00 0.00 0.00 96 1011.4
20260509133055 8 320 0.0 0.0 0.00 0.00 0.00 96 1011.2
20260509131557 7 22 0.0 0.0 0.00 0.00 0.00 96 1011.1
20260509130105 7 22 0.0 0.0 0.00 0.00 0.00 96 1011.1
20260509124556 7 22 0.0 0.0 0.00 0.03 0.00 96 1011.0
20260509123053 8 22 0.0 0.0 0.00 0.03 0.00 96 1010.9
20260509121604 8 22 0.0 0.0 0.00 0.03 0.00 96 1011.0
20260509120049 8 22 0.0 0.0 0.00 0.03 0.00 96 1010.9
20260509114553 8 22 0.0 0.0 0.00 0.03 0.00 96 1010.9
20260509113055 8 22 0.0 0.0 0.00 0.03 0.00 96 1010.8
20260509111543 8 22 0.0 0.0 0.00 0.03 0.00 96 1010.9
20260509110042 8 22 0.0 0.0 0.00 0.03 0.00 96 1010.9
20260509104540 9 26 0.0 0.0 0.00 0.03 0.00 96 1011.0
20260509103045 9 39 0.0 0.0 0.00 0.03 0.00 96 1010.9
20260509101556 9 55 0.0 0.0 0.00 0.03 0.00 96 1011.0
20260509100136 9 23 0.0 0.0 0.00 0.03 0.00 96 1011.0
20260509094538 8 51 0.0 0.0 0.00 0.03 0.00 95 1011.0
20260509093033 9 37 0.0 0.0 0.00 0.03 0.00 95 1011.2
20260509091532 9 37 0.0 0.0 0.00 0.03 0.00 95 1011.2
20260509090038 9 37 0.0 0.0 0.00 0.03 0.00 95 1011.1
20260509084529 9 37 0.0 0.0 0.00 0.03 0.00 95 1011.2
20260509083038 9 24 0.0 0.0 0.00 0.03 0.00 95 1011.4
20260509081529 9 24 0.0 0.0 0.00 0.03 0.00 95 1011.5
20260509080025 9 16 0.0 0.0 0.00 0.03 0.00 95 1011.6
20260509074524 9 49 0.0 0.0 0.00 0.03 0.00 95 1011.7
20260509073029 10 50 0.0 0.0 0.00 0.03 0.00 94 1011.7
20260509071528 10 85 0.0 0.0 0.00 0.03 0.00 94 1011.7
20260509070019 10 47 0.0 0.0 0.00 0.03 0.00 94 1011.7
20260509064517 10 65 0.0 0.0 0.00 0.03 0.03 94 1011.9
20260509063022 10 13 0.0 0.0 0.00 0.03 0.03 94 1011.9
20260509061520 10 180 0.0 0.0 0.00 0.03 0.03 94 1012.2
20260509060013 10 180 0.0 0.0 0.00 0.03 0.03 94 1012.4
20260509054513 10 180 0.0 0.0 0.00 0.03 0.03 94 1012.5
20260509053016 10 180 0.0 0.0 0.00 0.03 0.03 93 1012.6
20260509051512 10 192 0.0 0.0 0.00 0.03 0.03 93 1012.5
20260509050017 10 184 0.0 0.0 0.00 0.03 0.03 93 1012.4
20260509044510 10 181 0.0 0.0 0.00 0.03 0.03 92 1012.6
20260509043010 10 187 0.0 0.0 0.00 0.03 0.03 92 1012.5
20260509041510 10 264 0.0 0.0 0.00 0.03 0.03 91 1012.4
20260509040023 10 229 0.0 0.0 0.00 0.03 0.03 90 1012.4
20260509034508 11 229 0.0 0.0 0.00 0.03 0.03 89 1012.3
20260509033008 11 229 0.0 0.0 0.00 0.03 0.03 88 1012.3
20260509031607 11 229 0.0 0.0 0.00 0.03 0.03 87 1012.4
20260509030007 12 227 0.0 0.0 0.00 0.03 0.03 84 1012.4
20260509024508 13 210 0.0 0.0 0.00 0.03 0.03 81 1012.4
20260509023008 15 208 0.0 0.0 0.00 0.03 0.03 77 1012.2
20260509021505 16 257 0.0 0.0 0.00 0.03 0.03 76 1012.3
20260509020003 16 267 0.0 0.0 0.00 0.03 0.03 75 1012.4
20260509014502 16 247 0.0 0.0 0.00 0.03 0.03 74 1012.4
20260509013103 16 316 0.0 0.0 0.00 0.03 0.03 72 1012.4
20260509011601 17 304 0.0 0.0 0.00 0.03 0.03 70 1012.5
20260509010058 17 71 0.0 0.0 0.00 0.03 0.03 71 1012.6
20260509004608 17 28 0.0 0.0 0.00 0.03 0.03 69 1012.8
20260509003058 17 248 0.0 0.0 0.00 0.03 0.03 67 1012.7
20260509001555 18 5 0.0 0.0 0.00 0.03 0.03 69 1012.7
20260509000055 18 336 0.0 0.0 0.00 0.03 0.03 66 1012.7
20260508234553 17 315 0.0 0.0 0.00 0.03 0.03 69 1012.8
20260508233051 18 261 0.0 0.0 0.00 0.03 0.03 68 1012.9
20260508231550 18 360 0.0 0.0 0.00 0.03 0.03 68 1013.0
20260508230047 18 254 0.0 0.0 0.00 0.03 0.03 68 1013.2
20260508224606 18 24 0.0 0.0 0.00 0.03 0.03 70 1013.3
20260508223051 18 355 0.0 0.0 0.00 0.03 0.03 71 1013.4
20260508221542 19 318 0.0 0.0 0.00 0.03 0.03 69 1013.4
20260508220049 20 323 0.0 0.0 0.00 0.03 0.03 72 1013.5
20260508214539 19 250 0.0 0.0 0.00 0.03 0.03 73 1013.6
20260508213042 20 333 0.0 0.0 0.00 0.03 0.03 71 1013.6
20260508211537 20 262 0.0 0.0 0.00 0.03 0.03 70 1013.6
20260508210037 20 231 0.0 0.0 0.00 0.03 0.03 72 1013.8
20260508204535 19 216 0.0 0.0 0.00 0.03 0.03 69 1013.7
20260508203036 19 211 0.0 0.0 0.00 0.03 0.03 70 1013.8
20260508201533 20 263 0.0 0.0 0.00 0.03 0.03 71 1013.9
20260508200034 19 25 0.0 0.0 0.00 0.03 0.03 73 1013.9
20260508194536 19 194 0.0 0.0 0.00 0.03 0.03 78 1014.0
20260508193026 18 226 0.0 0.0 0.00 0.03 0.03 82 1014.2
20260508191529 17 350 0.0 0.0 0.00 0.03 0.03 82 1014.3
20260508190022 16 350 0.0 0.0 0.00 0.03 0.03 86 1014.5
20260508184521 15 19 0.0 0.0 0.00 0.03 0.03 91 1014.5
20260508183023 15 30 0.0 0.0 0.00 0.03 0.03 94 1014.7
20260508181514 13 248 0.0 0.0 0.00 0.03 0.03 96 1014.7
20260508180005 12 228 0.0 0.0 0.00 0.03 0.03 97 1014.7
20260508174502 11 323 0.0 0.0 0.00 0.03 0.03 97 1014.7
20260508173101 11 329 0.0 0.0 0.00 0.03 0.03 97 1014.8
20260508171557 11 202 0.0 0.0 0.00 0.03 0.03 97 1014.9
20260508170057 10 144 0.0 0.0 0.00 0.03 0.03 97 1014.9
20260508164556 10 272 0.0 0.0 0.00 0.03 0.03 97 1014.8
20260508163053 10 306 0.0 0.0 0.00 0.03 0.03 97 1014.8
20260508161558 10 233 0.0 0.0 0.00 0.03 0.03 97 1014.9
20260508160050 10 19 0.0 0.0 0.00 0.03 0.03 97 1014.7
20260508154607 10 266 0.0 0.0 0.00 0.03 0.03 97 1014.5
20260508153047 10 325 0.0 0.0 0.00 0.03 0.03 97 1014.4